Flag for Japan Weather past 2 weeks in Yokosuka, Japan

Now
68 °F

Rain. Fog.


Feels Like: 68 °F
Forecast: 65 / 69 °F
Wind: 3 mph from North

Location: Tokyo International Airport

Current Time: Jul 5, 2015 at 6:45:45 AM

Latest Report: Jul 5, 2015 at 6:00 AM


Visibility: 3 mi

Pressure: 29.83 "Hg

Humidity: 94%

Dew point: 66 °F

Location of YokosukaLocation

Historic Weather in Yokosuka — Graph

°F

Yokosuka temperature yesterday

Maximum temperature yesterday: 79 °F (at 10:00 AM)
Minimum temperature yesterday: 70 °F (at 10:30 PM)
Average temperature yesterday: 73 °F

Past Weeks' High & Low Weather Summary

 TemperatureHumidityPressure
High82 °F (Jun 24, 2:00 PM)100% (Jun 27, 1:00 AM)29.92 "Hg (Jun 27, 1:00 AM)
Low66 °F (Jun 20, 5:00 AM)48% (Jun 28, 1:30 PM)29.21 "Hg (Jul 1, 3:00 PM)
Average73 °F83%29.70 "Hg
* Reported Jun 20 5:00 AM — Jul 5 5:30 AM, Yokosuka, Weather by CustomWeather, © 2015

Note: Actual official high and low records may vary slightly from our data, if they occured in-between our weather recording intervals... More about our weather records

Advertising

Yokosuka weather history for previous 24 hours

 ConditionsComfort  
Time TempWeatherWind HumidityBarometerVisibility
5:30 AM
Sun, Jul 5
66 °FRain. Fog.3 mph100%29.83 "Hg3 mi
5:00 AM68 °FRain. Fog.5 mph94%29.83 "Hg3 mi
4:30 AM68 °FLight rain. Fog.7 mph94%29.83 "Hg3 mi
4:00 AM68 °FLight rain. Fog.3 mph94%29.83 "Hg3 mi
3:45 AM66 °FRain. Fog.2 mph100%29.83 "Hg3 mi
3:30 AM66 °FLight rain. Fog.No wind100%29.80 "Hg3 mi
3:00 AM66 °FRain. Fog.2 mph100%29.83 "Hg3 mi
2:30 AM66 °FRain. Fog.2 mph100%29.83 "Hg3 mi
2:00 AM66 °FLight rain. Overcast.5 mph100%29.83 "Hg4 mi
1:30 AM66 °FLight rain. Overcast.9 mph100%29.83 "Hg4 mi
1:00 AM68 °FRain. Fog.10 mph94%29.86 "Hg2 mi
12:46 AM70 °FRain. Fog.8 mph94%29.86 "Hg3 mi
12:30 AM68 °FLight rain. Fog.8 mph100%29.86 "Hg3 mi
12:00 AM70 °FRain. Fog.8 mph94%29.86 "Hg3 mi
11:30 PM
Sat, Jul 4
70 °FLight rain. Fog.9 mph94%29.86 "Hg4 mi
11:00 PM70 °FLight rain. Overcast.9 mph94%29.83 "Hg4 mi
10:30 PM70 °FLight rain. Overcast.9 mph100%29.86 "Hg4 mi
10:00 PM72 °FLight rain. Clear.6 mph94%29.86 "Hg5 mi
9:30 PM72 °FLight rain. Clear.5 mph94%29.86 "Hg5 mi
9:00 PM72 °FLight rain. Clear.6 mph88%29.83 "Hg6 mi
8:30 PM72 °FLight rain. Overcast.8 mph88%29.83 "HgN/A
8:00 PM72 °FLight rain. Overcast.10 mph88%29.83 "HgN/A
7:30 PM72 °FLight rain. Clear.7 mph94%29.80 "HgN/A
7:00 PM72 °FLight rain. Overcast.10 mph88%29.80 "Hg5 mi
6:30 PM72 °FLight rain. Clear.10 mph88%29.80 "Hg6 mi
6:00 PM72 °FLight rain. Clear.10 mph88%29.80 "Hg6 mi
5:30 PM72 °FLight rain. Clear.13 mph88%29.80 "HgN/A
5:00 PM73 °FLight rain. Clear.13 mph83%29.77 "HgN/A
4:30 PM73 °FLight rain. More clouds than sun.13 mph89%29.77 "HgN/A
4:00 PM75 °FLight rain. Overcast.10 mph83%29.77 "HgN/A
3:30 PM75 °FLight rain. More clouds than sun.12 mph83%29.80 "HgN/A
3:00 PM75 °FLight rain. Broken clouds.16 mph83%29.77 "HgN/A
2:30 PM77 °FLight rain. Broken clouds.13 mph79%29.77 "HgN/A
2:00 PM77 °FScattered showers. Partly sunny.13 mph79%29.74 "HgN/A
1:30 PM77 °FPartly sunny.13 mph79%29.77 "HgN/A
1:00 PM79 °FLight rain. Partly sunny.12 mph74%29.77 "HgN/A
12:30 PM77 °FBroken clouds.10 mph79%29.77 "HgN/A
12:00 PM79 °FBroken clouds.17 mph79%29.77 "HgN/A
11:30 AM77 °FPartly sunny.16 mph79%29.77 "HgN/A
11:00 AM77 °FPartly sunny.18 mph79%29.77 "HgN/A
10:30 AM75 °FPartly sunny.14 mph83%29.77 "HgN/A
10:00 AM79 °FPartly sunny.9 mph79%29.77 "HgN/A
9:30 AM77 °FPartly sunny.12 mph83%29.74 "HgN/A
9:00 AM75 °FScattered showers. Broken clouds.12 mph89%29.74 "Hg5 mi
8:30 AM73 °FSprinkles. Partly sunny.7 mph94%29.74 "Hg5 mi
8:00 AM73 °FSprinkles. Broken clouds.10 mph94%29.74 "Hg5 mi
7:30 AM72 °FSprinkles. Fog.17 mph100%29.71 "Hg3 mi
7:00 AM73 °FSprinkles. Fog.9 mph94%29.74 "Hg2 mi
6:30 AM72 °FSprinkles. Fog.5 mph94%29.71 "Hg2 mi
6:00 AM72 °FSprinkles. Fog.5 mph94%29.74 "Hg2 mi
Weather by CustomWeather, © 2015

See weather overviewHow to use our weather pages